Location: Napier
(39.4830°S, 176.9170°E)
Time: 03:08:38
(UTC+12:00)

Cosmos 1110 Rocket - Pass Details

Date: 15 August 2020
Orbit: 752 x 781 km, 74.0° (Epoch: 20 September)

Event Time Altitude Azimuth Distance (km) Brightness Sun altitude
Rises 19:02:28 0° 352° (N) 3,227 7.4 -17.5°
Reaches altitude 10° 19:04:51 10° 355° (N) 2,304 6.6 -18.0°
Maximum altitude 19:10:01 63° 75° (ENE) 857 3.9 -19.0°
Enters shadow 19:14:23 15° 153° (SSE) 2,007 5.9 -19.8°
